User: anonymous   Login
Location: Chandrammap?lem
(16.9200°N, 81.0051°E)
Time: 17:17:23
(UTC+00:00)
Language:

Cosmos 614 Rocket - Orbit

View from above orbital plane
View from above orbital plane
View from above satellite
View from above satellite

Ground track
Ground track

The orbit data is extracted from the following two-line orbital elements,

1  6966U 73098B   24196.49347354  .00000626  00000-0  19050-3 0  9997
2  6966  74.0558 107.6980 0020783 154.9517 205.2653 14.43944528658344
Epoch (UTC): 14 July 2024 11:50:36
Eccentricity: 0.0020783
inclination: 74.0558°
perigee height: 730 km
apogee height: 760 km
right ascension of ascending node: 107.6980°
argument of perigee: 154.9517°
revolutions per day: 14.43944528
mean anomaly at epoch: 205.2653°
orbit number at epoch: 65834

The dashed part of the orbit path shows where the satellite is in the earth's shadow,  

DLR